CT1AKV-10 Estrada Real PT current weather conditions

sailwx.info

Wind from 304 at 3 knots gusting 9

Air temperature 22.8° C
Dewpoint -10.4° C

Last reported at 2016-Aug-23 20:30 UTC.
Time now 2016-Aug-25 14:58 UTC

Location: N 39°11' W 008°44'.
View on Google Maps.

See reports from other nearby stations

  
Tides and Currents Weather Stations Pressure Air Temp Water Temp Dewpoint Dewpoint Depression Visibility Wind Speed Wind Dir Waves Ship Positions
date/time (UTC)wind fromknots sea level pressurealtimeterstation pressurevisibilityair tempwater tempwave heightnotes
2016-Aug-23 20:30 304 3 gusting 9 22.8
2016-Aug-23 20:15 303 3 gusting 11 23.3
2016-Aug-23 20:00 319 2 gusting 9 23.9
2016-Aug-23 19:45 294 3 gusting 7 24.4
2016-Aug-23 19:30 308 3 gusting 8 25.6
2016-Aug-23 19:15 314 3 gusting 10 26.7
2016-Aug-23 19:00 298 4 gusting 9 27.8
2016-Aug-23 18:45 313 4 gusting 10 28.3
2016-Aug-23 18:30 330 4 gusting 10 30.0
2016-Aug-23 18:15 292 4 gusting 10 30.6
2016-Aug-23 18:00 318 4 gusting 11 31.1
2016-Aug-23 17:45 304 4 gusting 12 30.6
2016-Aug-23 17:30 307 5 gusting 13 31.7
2016-Aug-23 17:15 306 4 gusting 10 32.2
2016-Aug-23 17:00 294 5 gusting 13 32.2
2016-Aug-23 16:45 307 5 gusting 13 33.3
2016-Aug-23 16:30 314 5 gusting 13 33.9
2016-Aug-23 16:15 297 5 gusting 11 33.9
2016-Aug-23 16:00 309 5 gusting 14 34.4
2016-Aug-23 15:45 296 4 gusting 11 35.0
2016-Aug-23 15:30 284 4 gusting 10 35.6
2016-Aug-23 15:15 282 4 gusting 10 36.1
2016-Aug-23 15:00 300 2 gusting 6 36.7
2016-Aug-23 14:45 326 3 gusting 8 37.2
2016-Aug-23 14:30 302 3 gusting 9 37.2
2016-Aug-23 14:15 299 3 gusting 7 37.2
2016-Aug-23 14:00 319 3 gusting 9 37.2